Kuchera_Ratio
0.0 0.0 0.0 0.0 0.0 0.0 0.0 0.0 3.0 8.1 4.1 0.0 0.0 0.0 0.0 0.0 0.0 0.0 0.0 0.0 0.0 0.0 0.0 0.0 0.0 0.0 0.0 0.0 0.0 0.0 0.0 0.0 0.0 0.0 0.0 0.0 0.0 0.0
0.0 0.0 0.0 0.0 0.0 0.0 0.0 0.0 0.0 4.4 8.1 0.0 0.0 0.0 0.0 0.0 0.0 0.0 0.0 0.0 0.0 0.0 0.0 0.0 0.0 0.0 0.0 0.0 0.0 0.0 0.0 0.0 0.0 0.0 0.0 0.0 0.0 0.0
0.0 0.0 0.0 0.0 0.0 0.0 0.0 0.0 0.5 1.2 7.1 3.0 0.0 0.0 0.0 0.0 0.0 0.0 0.0 0.0 0.0 0.0 0.0 0.0 0.0 0.0 0.0 0.0 0.0 0.0 0.0 0.0 0.0 0.0 0.0 0.0 0.0 0.0
0.0 0.0 0.0 0.0 0.0 0.0 0.0 0.0 0.0 0.0 2.8 6.7 1.7 0.0 0.0 0.0 0.0 0.0 0.0 0.0 0.0 0.0 0.0 0.0 0.0 0.0 0.0 0.0 0.0 0.0 0.0 0.0 0.0 0.0 0.0 0.0 0.0 0.0
0.3 0.6 0.4 0.0 1.2 0.0 0.0 0.0 0.0 0.0 0.6 3.6 4.7 0.7 0.0 0.0 0.0 0.0 0.0 0.0 0.0 0.0 0.0 0.0 0.0 0.0 0.0 0.0 0.0 0.0 0.0 0.0 0.0 0.0 0.0 0.0 0.0 0.0
0.7 0.8 0.7 1.0 1.5 1.4 0.5 0.3 0.0 2.1 1.8 3.7 4.4 3.6 2.3 0.0 0.0 0.0 0.0 0.0 0.0 0.0 0.0 0.0 0.0 0.0 0.0 0.0 0.0 0.0 0.0 0.0 0.0 0.0 0.0 0.0 0.0 0.0
1.8 0.8 1.0 0.8 0.0 0.0 0.2 1.0 0.9 2.7 3.1 4.6 5.8 4.7 4.1 2.2 0.0 0.0 0.0 0.0 0.0 0.0 0.0 0.0 0.0 0.0 0.0 0.0 0.0 0.0 0.0 0.0 0.0 0.0 0.0 0.0 0.0 0.0
3.7 1.9 0.7 0.4 0.4 0.0 0.0 0.0 0.0 3.4 4.3 5.3 5.7 7.0 4.8 3.7 0.0 0.0 0.0 0.0 0.0 0.0 0.0 0.0 0.0 0.0 0.0 0.0 0.0 0.0 0.0 0.0 0.0 0.0 0.0 0.0 0.0 0.0
3.6 3.0 2.5 0.4 1.2 1.2 0.2 0.0 0.0 0.0 0.0 2.0 5.7 5.5 4.8 3.8 2.1 0.0 0.0 0.0 0.0 0.0 0.0 0.0 0.0 0.0 0.0 0.0 0.0 0.0 0.0 0.0 0.0 0.0 0.0 0.0 0.0 0.0
4.1 4.3 4.1 4.2 2.7 3.1 3.6 3.8 3.3 2.0 1.3 0.2 1.1 2.2 1.4 1.3 3.8 3.1 0.0 0.0 0.0 0.0 0.0 0.0 0.0 0.0 0.0 0.0 0.0 0.0 0.0 0.0 0.0 0.0 0.0 0.0 0.0 0.0
4.4 4.1 4.3 4.8 2.6 0.9 4.7 7.0 5.9 4.2 0.0 0.0 0.0 0.0 0.0 0.0 0.0 3.0 4.2 1.2 0.0 0.0 0.0 0.0 0.0 0.0 0.0 0.0 0.0 0.0 0.0 0.0 0.0 0.0 0.0 0.0 0.0 0.0
6.0 5.0 3.2 3.5 2.6 1.8 5.0 8.4 9.4 6.8 4.2 2.8 2.1 0.6 0.0 1.1 0.0 1.8 3.7 6.3 2.2 0.0 0.0 0.0 0.0 0.0 0.0 0.0 0.0 0.0 0.0 0.0 0.0 0.0 0.0 0.0 0.0 0.0
8.6 7.7 5.1 2.6 1.9 2.1 1.9 6.7 7.4 3.4 2.9 3.5 4.1 3.8 3.6 3.3 2.2 2.8 2.1 2.4 2.4 1.1 0.0 0.0 0.0 0.0 0.0 0.0 0.0 0.0 0.0 0.0 0.0 0.0 0.0 0.0 0.0 0.0
9.5 6.5 5.1 3.0 2.7 2.6 3.1 2.8 2.1 2.2 3.9 6.0 6.3 7.1 6.6 5.4 2.8 3.6 3.0 2.6 0.0 0.0 0.0 0.0 0.0 0.0 0.0 0.0 0.0 0.0 0.0 0.0 0.0 0.0 0.0 0.0 0.0 0.0
7.2 5.7 3.8 3.1 2.6 2.6 2.4 2.3 2.1 4.3 6.9 7.8 9.0 7.8 5.6 3.8 3.0 2.7 3.5 3.3 1.9 0.0 0.0 0.0 0.0 0.0 0.0 0.0 0.0 0.0 0.0 0.0 0.0 0.0 0.0 0.0 0.0 0.0
5.3 6.1 4.4 4.1 3.4 4.0 4.7 3.9 4.1 5.4 7.0 7.5 7.2 6.5 5.2 5.7 6.0 4.3 6.6 6.7 7.4 5.3 0.0 0.0 0.0 0.0 0.0 0.0 0.0 0.0 0.0 0.0 0.0 0.0 0.0 0.0 0.0 0.0
6.6 8.1 9.0 9.1 9.8 9.1 8.9 8.4 6.6 6.0 7.0 6.9 7.4 7.9 7.7 6.9 6.8 4.9 5.4 6.5 7.9 6.4 3.8 1.7 0.0 0.0 0.0 0.0 0.0 0.0 0.0 0.0 0.0 0.0 0.0 0.0 0.0 0.0
9.5 12.1 12.4 11.7 11.6 11.0 10.3 9.5 8.4 6.6 7.6 7.0 7.5 7.7 8.3 8.3 8.0 7.9 8.0 7.8 7.8 7.3 5.5 1.1 0.1 0.0 0.0 0.0 0.0 0.0 0.0 0.0 0.0 0.0 0.0 0.0 0.0 0.0
12.0 11.9 11.2 11.6 11.2 10.2 9.7 9.4 9.2 7.4 6.4 7.5 9.5 7.7 7.7 7.8 7.3 8.6 8.1 8.1 8.4 7.9 7.8 1.5 0.4 0.4 0.0 0.3 0.0 0.0 0.0 0.0 0.0 0.0 0.0 0.0 0.0 0.0
11.9 11.8 10.8 9.4 10.0 10.1 9.5 9.0 8.5 7.5 7.4 7.8 8.6 8.4 8.2 8.0 8.6 8.8 8.5 8.8 8.4 7.2 7.0 5.6 2.9 1.1 0.5 0.0 0.0 0.0 0.0 0.0 0.0 0.0 0.0 0.0 0.0 0.0
11.9 11.2 10.1 8.9 8.8 9.6 8.4 8.3 8.3 7.7 7.4 8.2 8.5 8.7 7.7 7.8 8.6 7.9 7.9 5.9 6.4 8.1 8.6 6.8 4.0 0.0 0.0 0.0 0.0 0.0 0.0 0.0 0.0 0.0 0.0 0.0 0.0 0.0
12.0 10.9 9.9 9.0 9.0 8.7 9.3 8.2 8.6 8.0 7.9 8.0 7.9 7.4 6.7 7.3 7.9 8.0 8.0 8.5 7.6 7.7 7.6 6.5 4.1 2.4 0.8 0.0 0.0 0.0 0.0 0.0 0.0 0.0 0.0 0.0 0.0 0.0
12.2 11.8 10.9 10.2 9.1 8.6 8.6 8.8 8.4 8.4 7.9 8.0 8.4 7.0 7.1 8.4 8.0 7.4 7.1 7.2 7.5 8.7 8.4 8.4 6.8 5.3 3.6 3.1 0.0 0.0 0.0 0.0 0.0 0.0 0.0 0.0 0.0 0.0